#timestamp,LO_Frequency,Hit,StdDev 
1598914815.4,286047000.9,N
1598914835.2,286046998.6,N
1598914855.0,286046998.4,N
1598914855.9,286046998.4,N
1598914875.8,286046998.3,N
1598914895.6,286047000.7,N
1598914915.5,286047000.1,N
1598914935.3,286046999.8,N
1598914955.1,286047002.4,N
1598914975.9,286047002.6,N
1598914995.7,286046999.7,N
1598915015.6,286047002.0,N
1598915035.4,286047002.3,N
1598915055.2,286047002.0,N
1598915075.1,286047002.4,N
1598915076.0,286047002.4,N
1598915095.8,286047000.1,N
1598915115.7,286047002.5,N
1598915135.5,286047002.7,N
1598915155.3,286047002.2,N
1598915175.2,286047001.9,N
1598915195.0,286047002.6,N
1598915195.9,286047002.6,N
1598915215.8,286047002.6,N
1598915235.6,286047001.4,N
1598915255.4,286047004.3,N
1598915275.3,286047001.3,N
1598915295.1,286047003.8,N
1598915315.9,286047005.6,Y
1598915335.7,286047002.2,P
1598915355.5,286047000.2,N
1598915375.4,286047000.1,N
1598915395.2,286047000.1,N
1598915415.0,286046999.7,N
1598915415.9,286046999.7,N
1598915435.8,286047000.7,N
1598915455.6,286047002.7,Y
1598915475.5,286047002.0,P
1598915495.3,286047000.2,N
1598915515.1,286047000.4,N
1598915535.9,286047000.5,N
1598915555.7,286047000.7,N
1598915575.5,286047000.5,N
1598915595.4,286047001.5,N
1598915615.2,286046999.8,N
1598915635.1,286046999.8,N
1598915636.0,286046999.8,N
1598915655.8,286047002.5,Y
1598915675.6,286047001.0,P
1598915695.5,286047000.6,N
1598915715.3,286047000.2,N
1598915735.1,286047002.8,Y
1598915755.9,286047001.0,P
1598915775.7,286047001.2,P
1598915795.6,286046999.8,N
1598915815.4,286047000.7,N
1598915835.2,286047002.7,Y
1598915855.1,286046999.8,P
1598915856.0,286046999.8,N
1598915875.8,286046999.9,N
1598915895.7,286047001.1,N
1598915915.5,286046998.1,Y
1598915935.3,286046998.6,P
1598915955.2,286047001.1,N
1598915975.0,286046998.3,N
1598915975.9,286046998.3,N
1598915995.7,286047000.1,N
1598916015.6,286046999.9,N
1598916035.4,286046998.1,N
1598916055.3,286047000.5,N
1598916075.1,286046998.5,N
1598916095.8,286046998.5,N
1598916115.7,286046999.1,N
1598916135.5,286046999.1,N
1598916155.3,286046997.3,N
1598916175.2,286046999.6,N
1598916195.0,286046996.6,Y
1598916195.9,286046996.6,P
1598916215.8,286046999.2,N
1598916235.6,286046999.5,N
1598916255.4,286046999.3,N
1598916275.3,286046998.2,N
1598916295.1,286047000.0,N
1598916315.9,286047002.1,N
1598916335.7,286047002.2,N
1598916355.5,286047002.6,N
1598916375.4,286047002.8,N
1598916395.2,286047001.2,N
1598916415.0,286046998.6,N
1598916415.9,286046998.6,N
1598916435.8,286046998.2,N
1598916455.6,286046999.5,N
1598916475.5,286046999.2,N
1598916495.3,286046999.6,N
1598916515.1,286046999.3,N
1598916535.9,286046998.6,N
1598916555.7,286046998.4,N
1598916575.5,286046999.3,N
1598916595.4,286047000.8,N
1598916615.2,286046998.1,N
1598916635.1,286046998.5,N
1598916636.0,286046998.5,N
1598916655.8,286046996.9,N
1598916675.6,286046999.1,N
1598916695.5,286046997.3,N
1598916715.3,286046996.9,N
1598916735.1,286046997.0,N
1598916755.9,286046994.9,Y
1598916775.7,286046997.3,P
1598916795.6,286046997.0,P
1598916815.4,286046996.7,P
1598916835.2,286046999.4,N
1598916855.1,286046998.6,N
1598916856.0,286046998.6,N
1598916875.8,286046998.7,N
1598916895.7,286046996.9,Y
1598916915.5,286047000.5,P
1598916935.3,286046998.2,N
1598916955.2,286046999.3,N
1598916975.9,286046998.8,N
1598916995.7,286046998.3,N
1598917015.6,286046998.1,N
1598917035.4,286047001.1,N
1598917055.3,286047000.5,N
1598917075.1,286047000.9,N
1598917095.8,286046998.1,N
1598917115.7,286047001.0,N
1598917135.5,286046999.0,N
1598917155.4,286046998.2,N
1598917175.2,286047001.2,N
1598917195.0,286047002.2,N
1598917195.9,286047002.2,N
1598917215.8,286047002.5,N
1598917235.6,286047002.6,N
1598917255.5,286047001.5,N
1598917275.3,286047002.4,N
1598917295.1,286047002.0,N
1598917315.9,286046999.7,N
1598917335.7,286047002.5,N
1598917355.6,286047002.4,N
1598917375.4,286047004.4,N
1598917395.2,286047002.1,N
1598917415.1,286046999.8,N
1598917416.0,286046999.8,N
1598917435.8,286047000.8,N
1598917455.7,286047000.3,N
1598917475.5,286046999.9,N
1598917495.3,286047000.6,N
1598917515.2,286046998.7,N
1598917535.9,286046998.9,N
1598917555.7,286046998.2,N
1598917575.6,286046999.9,N
1598917595.4,286046999.8,N
1598917615.2,286047002.7,N
1598917635.1,286046999.8,N
1598917636.0,286046999.8,N
1598917655.8,286047002.7,N
1598917675.7,286047002.8,N
1598917695.5,286047002.7,N
1598917715.3,286046999.7,N
1598917735.2,286047000.3,N
1598917755.0,286047000.7,N
1598917755.9,286047000.7,N
1598917775.8,286047000.5,N
1598917795.6,286047000.3,N
1598917815.4,286046999.9,N
1598917835.3,286047002.2,N
1598917855.1,286047002.6,N
1598917875.8,286047001.9,N
1598917895.7,286047003.2,N
1598917915.5,286047004.3,N
1598917935.4,286047004.4,N
1598917955.2,286047001.8,N
1598917975.0,286047002.0,N
1598917976.0,286047002.0,N
1598917995.8,286047004.1,N
1598918015.6,286047003.2,N
1598918035.5,286047003.9,N
1598918055.3,286047003.1,N
1598918075.1,286047003.2,N
1598918095.9,286047003.7,N
1598918115.7,286047002.9,N
1598918135.6,286047003.4,N
1598918155.4,286047005.9,Y
1598918175.2,286047002.5,P
1598918195.1,286047001.4,P
1598918196.0,286047001.4,N
1598918215.8,286047003.9,Y
1598918235.7,286047002.1,P
1598918255.5,286047001.0,P
1598918275.3,286047000.3,N
1598918295.2,286047002.8,Y
1598918315.0,286047000.4,P
1598918315.9,286047000.4,N
1598918335.8,286047000.5,N
1598918355.6,286047000.3,N
1598918375.4,286047000.2,N
1598918395.3,286047000.4,N
